sat.trackr.live / text

‹ back to catalog

STARLINK-3589

NORAD 51997 · 2022-025AT

PAYLOAD ACTIVE UNKNOWN

§ Identity

Operator
Country
US
Launch date
2022-03-09
Launch site
AFETR
Launch vehicle
Mass (kg)
RCS (m²)

Purposes: comms

External: N2YO · Heavens-Above · Gunter

§ Orbital elements

Epoch: 2026-09-19T14:22:23.488608Z

Period
93.85 min
Inclination
53.1593°
Eccentricity
0.0001271
Mean motion
15.34380763 rev/d
Perigee alt
461.9 km
Apogee alt
463.6 km
Semi-major
6,840.9 km
B*
-9.5338e-7
RAAN
213.6800°
Arg perigee
100.1763°
Mean anomaly
259.9383°
Rev number
25,038

§ Raw data

STARLINK-35891 51997U 22025AT  26262.59888297 -.00000408  00000+0 -95338-6 0  99932 51997  53.1593 213.6800 0001271 100.1763 259.9383 15.34380763250385

JSON: /api/v1/satellites/51997 · /tle

For live sub-satellite position, see the globe view (requires WebGL).

§ Visibility from observer

Set your observer location to see the next 7 days of passes ≥ 10°. The values pass through the URL so the page stays shareable.

No JS? Fill the form by hand. The geolocation button needs JavaScript.